Flag for Canada Weather past 2 weeks in Quispamsis, New Brunswick, Canada

Now
21 °F

Passing clouds.


Feels Like: 9 °F
Forecast: 0 / 17 °F
Wind: 12 mph from Northwest

Location: Saint John

Current Time: Mar 2, 2015 at 9:18:20 PM

Latest Report: Mar 2, 2015 at 8:52 PM


Visibility: 15 mi

Pressure: 29.77 "Hg

Humidity: 74%

Dew point: 14 °F

Location of QuispamsisLocation

Historic Weather in Quispamsis — Graph

°F

Quispamsis temperature yesterday

Maximum temperature yesterday: 30 °F (at 10:00 PM)
Minimum temperature yesterday: -11 °F (at 7:00 AM)
Average temperature yesterday: 13 °F

Past Weeks' High & Low Weather Summary

 TemperatureHumidityPressure
High36 °F (Feb 22, 4:54 AM)100% (Feb 22, 12:00 AM)30.67 "Hg (Feb 22, 12:00 AM)
Low-15 °F (Feb 28, 7:00 AM)35% (Feb 21, 1:00 PM)29.10 "Hg (Feb 15, 8:00 PM)
Average13 °F70%29.97 "Hg
* Reported Feb 15 8:00 PM — Mar 2 8:00 PM, Quispamsis, Weather by CustomWeather, © 2015

Note: Actual official high and low records may vary slightly from our data, if they occured in-between our weather recording intervals... More about our weather records

Advertising

Quispamsis weather history for previous 24 hours

 ConditionsComfort  
Time TempWeatherWind HumidityBarometerVisibility
8:00 PM
Mon, Mar 2
21 °FClear.10 mph68%29.75 "Hg15 mi
7:00 PM23 °FLow level haze.14 mph74%29.71 "Hg15 mi
6:00 PM25 °FSnow flurries. Partly sunny.16 mph63%29.67 "Hg10 mi
5:52 PM25 °FSnow flurries. Partly sunny.12 mph63%29.67 "Hg10 mi
5:00 PM25 °FScattered clouds.17 mph63%29.64 "Hg15 mi
4:00 PM25 °FSnow flurries. Broken clouds.18 mph69%29.63 "Hg15 mi
3:00 PM27 °FLight snow. Partly sunny.10 mph74%29.62 "Hg3 mi
2:00 PM27 °FLight snow. Partly sunny.12 mph74%29.63 "Hg10 mi
1:00 PM27 °FLight snow. Broken clouds.17 mph74%29.66 "Hg10 mi
12:00 PM25 °FLight snow. Mostly cloudy.15 mph80%29.68 "Hg1 mi
11:00 AM25 °FLow clouds.14 mph80%29.72 "Hg1 mi
10:00 AM25 °FLight snow. Low clouds.15 mph80%29.74 "Hg2 mi
9:00 AM27 °FLight snow. Mostly cloudy.8 mph86%29.77 "Hg3 mi
8:47 AM27 °FLight snow. Mostly cloudy.7 mph93%29.78 "Hg2 mi
8:00 AM27 °FLight snow. More clouds than sun.No wind86%29.80 "Hg8 mi
7:00 AM27 °FLight snow. Low clouds.2 mph93%29.83 "Hg2 mi
6:00 AM27 °FLight snow. Mostly cloudy.5 mph93%29.87 "Hg3 mi
5:00 AM28 °FLight snow. Mostly cloudy.5 mph93%29.91 "Hg3 mi
4:00 AM28 °FLight snow. Mostly cloudy.6 mph93%29.96 "Hg1 mi
3:00 AM28 °FLight snow. Mostly cloudy.9 mph93%30.01 "Hg1 mi
2:00 AM28 °FLight snow. Mostly cloudy.10 mph100%30.06 "Hg1 mi
1:00 AM28 °FLight snow. Low clouds.14 mph93%30.11 "Hg1 mi
12:00 AM28 °FLight snow. Mostly cloudy.14 mph93%30.15 "Hg1 mi
11:00 PM
Sun, Mar 1
28 °FLight snow. Mostly cloudy.15 mph74%30.19 "Hg12 mi
10:00 PM30 °FLight snow. Overcast.17 mph69%30.24 "Hg12 mi
9:00 PM28 °FLight snow. Mostly cloudy.16 mph93%30.29 "Hg2 mi
Weather by CustomWeather, © 2015

See weather overviewHow to use our weather pages